DW3560 Weather Reports


time (UTC)temp
C
wind
direction
speed
KPH
gust
KPH
rain 1hr
cm
rain 24hr
cm
rain mn
cm
humidity
%
barometer
mb
20260904214002 21 271 4.8 14.5 0.00 0.36 0.03 55 1012.6
20260904213502 21 250 4.8 14.5 0.00 0.36 0.03 53 1012.6
20260904213002 21 248 4.8 12.9 0.00 0.36 0.03 54 1012.6
20260904212502 21 241 3.2 12.9 0.00 0.36 0.03 54 1012.6
20260904212002 21 252 4.8 12.9 0.00 0.36 0.03 55 1012.6
20260904211502 20 255 4.8 12.9 0.00 0.36 0.03 52 1012.6
20260904211002 20 282 4.8 12.9 0.00 0.36 0.03 51 1012.6
20260904210502 20 320 4.8 12.9 0.00 0.36 0.03 54 1012.6
20260904210002 20 294 4.8 11.3 0.00 0.36 0.03 57 1012.6
20260904205523 20 267 4.8 16.1 0.00 0.36 0.03 56 1012.6
20260904205002 20 229 4.8 16.1 0.00 0.36 0.03 57 1012.6
20260904204502 20 230 6.4 12.9 0.00 0.36 0.03 56 1012.6
20260904204002 20 237 4.8 12.9 0.00 0.36 0.03 58 1012.6
20260904203502 20 261 4.8 11.3 0.00 0.36 0.03 58 1012.6
20260904203002 20 305 4.8 11.3 0.00 0.36 0.03 58 1012.6
20260904202502 20 277 4.8 11.3 0.00 0.36 0.03 57 1012.6
20260904202002 20 238 4.8 11.3 0.00 0.36 0.03 59 1012.6
20260904201502 20 252 3.2 11.3 0.00 0.36 0.03 60 1012.6
20260904201023 20 249 4.8 14.5 0.00 0.36 0.03 58 1012.6
20260904200523 20 263 4.8 14.5 0.00 0.36 0.03 59 1012.6
20260904200002 20 294 3.2 8.0 0.00 0.36 0.03 58 1012.6
20260904195502 20 314 3.2 8.0 0.00 0.36 0.03 59 1012.6
20260904195023 20 327 3.2 8.0 0.00 0.36 0.03 61 1012.6
20260904194502 20 323 3.2 8.0 0.00 0.36 0.03 61 1012.6
20260904194002 19 302 1.6 8.0 0.00 0.36 0.03 61 1012.6
20260904193502 19 286 1.6 9.7 0.00 0.36 0.03 64 1012.6
20260904193002 18 252 3.2 9.7 0.00 0.36 0.03 65 1012.6
20260904192502 18 228 3.2 12.9 0.00 0.36 0.03 65 1012.6
20260904192002 18 234 3.2 12.9 0.00 0.36 0.03 65 1012.6
20260904191502 18 230 4.8 11.3 0.00 0.36 0.03 65 1012.6
20260904191002 18 233 4.8 11.3 0.00 0.36 0.03 64 1012.6
20260904190502 18 247 3.2 11.3 0.00 0.36 0.03 65 1012.6
20260904190002 18 248 4.8 12.9 0.00 0.36 0.03 66 1012.6
20260904185523 18 259 3.2 12.9 0.00 0.36 0.03 66 1012.6
20260904185002 18 306 1.6 11.3 0.00 0.36 0.03 67 1012.6
20260904184502 18 260 3.2 9.7 0.00 0.36 0.03 70 1012.6
20260904184002 18 237 3.2 9.7 0.00 0.36 0.03 71 1012.6
20260904183502 17 227 3.2 11.3 0.00 0.36 0.03 73 1012.6
20260904183002 17 232 4.8 11.3 0.00 0.36 0.03 73 1012.6
20260904182502 17 247 3.2 11.3 0.00 0.36 0.03 73 1012.6
20260904182002 17 273 1.6 8.0 0.00 0.36 0.03 76 1012.6
20260904181502 16 244 3.2 9.7 0.00 0.36 0.03 79 1012.6
20260904181002 16 228 3.2 9.7 0.00 0.36 0.03 82 1012.6
20260904180502 16 230 3.2 8.0 0.00 0.36 0.03 85 1012.6
20260904180002 16 233 1.6 6.4 0.00 0.36 0.03 88 1012.6
20260904175502 15 232 1.6 6.4 0.00 0.36 0.03 89 1012.6
20260904175002 15 233 3.2 8.0 0.00 0.36 0.03 90 1012.6
20260904174502 15 233 3.2 9.7 0.00 0.36 0.03 91 1012.6
20260904174002 15 227 1.6 9.7 0.00 0.36 0.03 93 1012.6
20260904173502 15 225 1.6 6.4 0.00 0.36 0.03 94 1012.6
20260904173002 15 231 1.6 4.8 0.00 0.36 0.03 94 1012.6
20260904172502 14 234 1.6 4.8 0.00 0.36 0.03 95 1012.6
20260904172002 14 238 1.6 6.4 0.00 0.36 0.03 95 1012.6
20260904171502 14 239 1.6 6.4 0.00 0.36 0.03 95 1012.6
20260904171023 14 239 1.6 6.4 0.00 0.36 0.03 95 1012.6
20260904170502 14 239 1.6 6.4 0.00 0.36 0.03 95 1012.6
20260904170002 14 236 1.6 6.4 0.00 0.36 0.03 95 1012.6
20260904165502 14 234 1.6 6.4 0.00 0.36 0.03 95 1012.6
20260904165002 14 232 1.6 6.4 0.00 0.36 0.03 95 1012.6
20260904164502 14 231 1.6 6.4 0.00 0.36 0.03 95 1012.6
20260904164002 14 230 1.6 4.8 0.00 0.36 0.03 96 1012.6
20260904163502 14 229 1.6 4.8 0.00 0.36 0.03 96 1012.6
20260904163002 14 228 1.6 4.8 0.00 0.36 0.03 96 1012.6
20260904162523 14 229 1.6 4.8 0.00 0.36 0.03 96 1012.6
20260904162002 14 229 1.6 4.8 0.00 0.36 0.03 96 1012.6
20260904161502 14 229 1.6 4.8 0.00 0.36 0.03 96 1012.6
20260904161002 14 225 1.6 6.4 0.00 0.36 0.03 96 1012.6
20260904160502 14 208 3.2 6.4 0.00 0.36 0.03 96 1012.6
20260904160023 14 188 3.2 8.0 0.00 0.36 0.03 96 1012.6
20260904155502 14 175 3.2 8.0 0.00 0.36 0.03 96 1012.6
20260904155002 14 165 3.2 8.0 0.00 0.36 0.03 96 1012.6
20260904154523 14 164 3.2 8.0 0.00 0.36 0.03 96 1012.6
20260904154002 14 164 3.2 9.7 0.00 0.36 0.03 96 1012.6
20260904153502 14 168 3.2 9.7 0.00 0.36 0.03 96 1012.6
20260904153002 14 175 3.2 8.0 0.00 0.36 0.03 96 1012.6
20260904152502 13 183 3.2 6.4 0.00 0.36 0.03 96 1012.6
20260904152002 13 189 3.2 6.4 0.00 0.36 0.03 96 1012.6
20260904151502 13 195 3.2 6.4 0.00 0.36 0.03 96 1012.6
20260904151002 13 196 3.2 6.4 0.00 0.36 0.03 96 1012.6
20260904150502 13 197 3.2 6.4 0.00 0.36 0.03 96 1012.6
20260904150002 13 197 3.2 6.4 0.00 0.36 0.03 96 1012.6
20260904145502 13 198 1.6 6.4 0.00 0.36 0.03 96 1012.6
20260904145002 13 198 3.2 6.4 0.00 0.36 0.03 96 1012.6
20260904144502 13 196 1.6 8.0 0.00 0.36 0.03 96 1012.6
20260904144002 13 197 1.6 8.0 0.00 0.36 0.03 96 1012.6
20260904143502 13 208 1.6 8.0 0.00 0.36 0.03 96 1012.6
20260904143002 13 210 1.6 8.0 0.00 0.36 0.03 96 1012.6
20260904142502 13 211 1.6 4.8 0.00 0.36 0.03 96 1012.6
20260904142002 13 211 1.6 4.8 0.00 0.36 0.03 95 1012.6
20260904141502 13 213 3.2 4.8 0.00 0.36 0.03 95 1012.6
20260904141002 13 216 3.2 4.8 0.00 0.36 0.03 95 1012.6
20260904140502 13 218 1.6 6.4 0.00 0.36 0.03 95 1012.6
20260904140023 13 220 1.6 6.4 0.00 0.36 0.03 95 1012.6
20260904135502 13 221 1.6 4.8 0.00 0.36 0.03 96 1012.6
20260904135002 13 223 1.6 6.4 0.00 0.36 0.03 96 1012.6
20260904134502 13 225 1.6 6.4 0.00 0.36 0.03 96 1012.6
20260904134002 13 228 1.6 6.4 0.00 0.36 0.03 95 1012.6
20260904133502 13 231 1.6 6.4 0.00 0.36 0.03 95 1012.6
20260904133002 13 232 1.6 4.8 0.00 0.36 0.03 95 1012.6
20260904132502 13 233 1.6 4.8 0.00 0.36 0.03 95 1012.6
20260904132002 13 234 0.0 3.2 0.00 0.36 0.03 96 1012.6
20260904131502 13 234 1.6 3.2 0.00 0.36 0.03 96 1012.6
20260904131002 13 234 1.6 3.2 0.00 0.36 0.03 96 1012.6
20260904130502 13 234 0.0 3.2 0.00 0.36 0.03 95 1012.6
20260904130002 13 234 0.0 1.6 0.00 0.36 0.03 95 1012.6
20260904125502 13 234 0.0 3.2 0.00 0.36 0.03 95 1012.6
20260904125023 13 234 1.6 3.2 0.00 0.36 0.03 95 1012.6
20260904124502 13 234 0.0 3.2 0.00 0.36 0.03 95 1012.6
20260904124002 13 235 1.6 4.8 0.00 0.36 0.03 95 1012.6
20260904123502 13 235 1.6 4.8 0.00 0.36 0.03 95 1012.6
20260904123023 13 236 1.6 3.2 0.00 0.36 0.03 95 1012.6
20260904122523 13 236 1.6 3.2 0.00 0.36 0.03 95 1012.6
20260904122002 13 236 1.6 3.2 0.00 0.36 0.03 95 1012.6
20260904121502 13 237 1.6 3.2 0.00 0.36 0.03 95 1012.6
20260904121002 13 237 0.0 3.2 0.00 0.36 0.03 95 1012.6
20260904120502 13 237 1.6 3.2 0.00 0.36 0.03 95 1012.6
20260904120003 13 237 1.6 3.2 0.00 0.36 0.03 95 1012.6
20260904115503 13 237 0.0 3.2 0.00 0.36 0.03 95 1012.6
20260904115002 13 237 0.0 1.6 0.00 0.36 0.03 95 1012.6
20260904114502 13 236 1.6 6.4 0.00 0.36 0.03 95 1012.6
20260904114002 13 236 1.6 6.4 0.00 0.36 0.03 95 1012.5
20260904113503 13 235 1.6 4.8 0.00 0.36 0.03 95 1012.5
20260904113003 13 232 1.6 6.4 0.00 0.36 0.03 95 1012.5
20260904112502 13 227 1.6 6.4 0.00 0.36 0.03 95 1012.5
20260904112002 13 218 1.6 8.0 0.00 0.36 0.03 95 1012.5
20260904111502 13 221 1.6 8.0 0.00 0.36 0.03 95 1012.5
20260904111002 13 249 1.6 4.8 0.00 0.36 0.03 95 1012.5
20260904110502 13 257 1.6 3.2 0.00 0.36 0.03 95 1012.5
20260904110024 13 257 0.0 3.2 0.00 0.36 0.03 95 1012.3
20260904105502 13 257 0.0 4.8 0.00 0.36 0.03 95 1012.3
20260904105002 13 255 1.6 6.4 0.00 0.36 0.03 95 1012.3
20260904104502 13 254 1.6 8.0 0.00 0.36 0.03 95 1012.3
20260904104002 13 256 1.6 8.0 0.00 0.36 0.03 95 1012.3
20260904103502 13 247 1.6 8.0 0.00 0.36 0.03 95 1012.3
20260904103002 13 249 3.2 11.3 0.00 0.36 0.03 95 1012.3
20260904102523 14 267 3.2 11.3 0.00 0.36 0.03 95 1012.3
20260904102002 14 286 1.6 6.4 0.00 0.36 0.03 95 1012.3
20260904101502 14 275 0.0 3.2 0.00 0.36 0.03 95 1012.3
20260904101002 14 276 1.6 4.8 0.00 0.36 0.03 95 1012.3
20260904100502 14 279 1.6 4.8 0.00 0.36 0.03 95 1012.3
20260904100002 14 294 0.0 4.8 0.00 0.36 0.03 95 1012.3
20260904095502 14 303 0.0 3.2 0.00 0.36 0.03 95 1012.3
20260904095023 14 323 1.6 6.4 0.00 0.36 0.03 95 1012.3
20260904094523 14 335 1.6 8.0 0.00 0.36 0.03 95 1012.3
20260904094023 14 340 0.0 8.0 0.00 0.36 0.03 95 1012.1
20260904093503 14 323 0.0 1.6 0.00 0.36 0.03 95 1012.1
20260904093023 14 323 0.0 4.8 0.00 0.36 0.03 95 1012.1
20260904092502 14 322 1.6 4.8 0.00 0.36 0.03 95 1012.1
20260904092023 14 313 1.6 8.0 0.00 0.36 0.03 95 1012.1
20260904091524 14 318 1.6 8.0 0.00 0.36 0.03 95 1012.1
20260904091002 14 303 1.6 6.4 0.00 0.36 0.03 95 1012.1
20260904090502 14 270 1.6 9.7 0.00 0.36 0.03 95 1012.1
20260904090002 14 255 3.2 11.3 0.00 0.36 0.03 95 1012.1
20260904085502 14 248 4.8 11.3 0.00 0.36 0.03 95 1012.1
20260904085023 15 252 3.2 11.3 0.00 0.36 0.03 95 1012.1
20260904084502 15 268 3.2 12.9 0.00 0.36 0.03 95 1012.1
20260904084023 15 264 3.2 12.9 0.00 0.36 0.03 94 1012.0
20260904083523 15 258 1.6 8.0 0.00 0.36 0.03 95 1012.0
20260904083002 15 251 1.6 6.4 0.03 0.36 0.03 94 1012.0
20260904082503 15 248 1.6 6.4 0.03 0.36 0.03 95 1012.0
20260904082003 15 252 1.6 6.4 0.03 0.36 0.03 95 1012.0
20260904081502 15 250 1.6 6.4 0.03 0.36 0.03 95 1012.0
20260904081003 15 256 1.6 6.4 0.03 0.36 0.03 95 1012.0
20260904080502 15 270 1.6 6.4 0.03 0.36 0.03 94 1012.0
20260904080002 15 285 1.6 4.8 0.03 0.36 0.03 94 1012.0
20260904075502 15 323 1.6 4.8 0.03 0.36 0.03 94 1012.0
20260904075003 15 355 0.0 3.2 0.03 0.36 0.03 94 1012.0
20260904074502 14 355 0.0 1.6 0.03 0.36 0.03 94 1012.0
20260904074002 14 355 0.0 1.6 0.03 0.36 0.03 94 1013.6
20260904073502 14 355 0.0 3.2 0.03 0.36 0.03 94 1013.6
20260904073002 14 355 0.0 3.2 0.00 0.33 0.00 94 1013.6
20260904072502 14 355 0.0 3.2 0.00 0.33 0.00 94 1013.6
20260904072002 14 355 0.0 3.2 0.03 0.33 0.00 94 1013.6
20260904071502 14 355 0.0 1.6 0.05 0.33 0.00 94 1013.6
20260904071002 14 355 0.0 1.6 0.05 0.33 0.00 94 1013.6
20260904070503 14 0 0.0 0.0 0.05 0.33 0.00 94 1013.6
20260904070030 14 355 0.0 4.8 0.08 0.33 0.00 94 1013.6
20260904065502 14 355 1.6 4.8 0.10 0.33 0.33 94 1013.6
20260904065002 14 352 1.6 6.4 0.13 0.33 0.33 94 1013.6
20260904064502 14 354 3.2 9.7 0.13 0.33 0.33 94 1013.6
20260904064002 14 350 3.2 9.7 0.15 0.33 0.33 94 1013.6
20260904063523 14 340 3.2 9.7 0.15 0.33 0.33 93 1013.6
20260904063003 15 335 3.2 16.1 0.18 0.33 0.33 94 1013.6
20260904062503 15 327 3.2 16.1 0.18 0.33 0.33 94 1013.6
20260904062002 15 320 4.8 14.5 0.18 0.30 0.30 94 1013.6
20260904061502 15 322 3.2 12.9 0.15 0.28 0.28 93 1013.6
20260904061002 15 330 3.2 9.7 0.15 0.28 0.28 93 1013.6
20260904060503 15 314 3.2 12.9 0.15 0.28 0.28 93 1013.6
20260904060002 15 283 3.2 12.9 0.13 0.25 0.25 93 1013.6
20260904055524 15 283 1.6 11.3 0.10 0.23 0.23 93 1013.6
20260904055002 15 266 3.2 9.7 0.10 0.20 0.20 93 1013.6
20260904054503 15 251 3.2 14.5 0.10 0.20 0.20 93 1013.6
20260904054003 15 247 3.2 14.5 0.08 0.18 0.18 93 1013.6
20260904053524 15 256 3.2 11.3 0.08 0.18 0.18 93 1013.6
20260904053002 16 278 1.6 8.0 0.05 0.15 0.15 93 1013.6
20260904052502 16 264 3.2 6.4 0.05 0.15 0.15 93 1013.6
20260904052003 16 255 3.2 6.4 0.03 0.13 0.13 92 1013.6
20260904051503 16 256 1.6 6.4 0.03 0.13 0.13 93 1013.6
20260904051024 16 257 0.0 6.4 0.03 0.13 0.13 92 1013.6
20260904050503 16 266 0.0 6.4 0.05 0.13 0.13 92 1013.6
20260904050003 16 274 0.0 6.4 0.05 0.13 0.13 92 1013.6
20260904045524 16 300 0.0 6.4 0.08 0.13 0.13 92 1013.6
20260904045024 16 267 1.6 6.4 0.05 0.10 0.10 92 1013.6
20260904044502 16 251 1.6 6.4 0.08 0.10 0.10 92 1013.6
20260904044003 16 257 1.6 6.4 0.10 0.10 0.10 92 1013.6
20260904043503 16 269 1.6 4.8 0.10 0.10 0.10 92 1013.6
20260904043003 16 282 1.6 4.8 0.10 0.10 0.10 92 1013.6
20260904042523 16 291 1.6 4.8 0.10 0.10 0.10 91 1013.6
20260904042002 16 294 0.0 3.2 0.10 0.10 0.10 91 1013.6
20260904041524 16 295 0.0 3.2 0.10 0.10 0.10 91 1013.6
20260904041002 16 293 0.0 4.8 0.10 0.10 0.10 91 1013.6
20260904040524 16 290 0.0 4.8 0.08 0.08 0.08 91 1013.6
20260904040003 17 307 0.0 6.4 0.08 0.08 0.08 91 1013.6
20260904035502 17 293 1.6 6.4 0.05 0.05 0.05 91 1013.6
20260904035002 17 273 1.6 8.0 0.05 0.05 0.05 91 1013.6
20260904034502 17 261 1.6 8.0 0.03 0.03 0.03 90 1013.6
20260904034002 17 247 1.6 9.7 0.00 0.00 0.00 90 1013.6
20260904033503 17 230 1.6 9.7 0.00 0.00 0.00 90 1013.6
20260904033002 17 201 3.2 9.7 0.00 0.00 0.00 90 1013.6
20260904032503 17 202 3.2 12.9 0.00 0.00 0.00 90 1013.6
20260904032003 17 222 3.2 12.9 0.00 0.00 0.00 89 1013.6
20260904031503 17 242 3.2 11.3 0.00 0.00 0.00 89 1013.6
20260904031003 17 242 4.8 12.9 0.00 0.00 0.00 89 1013.6
20260904030503 17 232 4.8 12.9 0.00 0.00 0.00 88 1013.6
20260904030024 17 205 4.8 9.7 0.00 0.00 0.00 88 1013.6
20260904025503 17 209 4.8 11.3 0.00 0.00 0.00 88 1013.6
20260904025002 17 232 3.2 11.3 0.00 0.00 0.00 88 1013.6
20260904024503 17 239 1.6 6.4 0.00 0.00 0.00 88 1013.6
20260904024003 17 240 1.6 6.4 0.00 0.00 0.00 88 1013.6
20260904023503 17 244 3.2 6.4 0.00 0.00 0.00 87 1013.6
20260904023003 17 251 4.8 12.9 0.00 0.00 0.00 87 1013.6
20260904022503 17 257 3.2 12.9 0.00 0.00 0.00 87 1013.6
20260904022003 17 265 1.6 9.7 0.00 0.00 0.00 87 1013.6
20260904021503 17 272 1.6 6.4 0.00 0.00 0.00 87 1013.6
20260904021003 17 256 1.6 6.4 0.00 0.00 0.00 86 1013.6
20260904020502 17 249 3.2 11.3 0.00 0.00 0.00 86 1013.6
20260904020003 18 252 3.2 11.3 0.00 0.00 0.00 86 1013.6
20260904015503 18 259 4.8 12.9 0.00 0.00 0.00 85 1013.6
20260904015003 18 261 4.8 12.9 0.00 0.00 0.00 85 1013.6
20260904014503 18 258 3.2 12.9 0.00 0.00 0.00 84 1013.6
20260904014003 18 259 3.2 14.5 0.00 0.00 0.00 84 1013.6
20260904013524 18 266 3.2 14.5 0.00 0.00 0.00 83 1013.6
20260904013003 18 261 4.8 14.5 0.00 0.00 0.00 83 1013.6
20260904012503 18 259 4.8 14.5 0.00 0.00 0.00 82 1013.6
20260904012024 18 266 3.2 12.9 0.00 0.00 0.00 81 1013.6
20260904011503 18 262 4.8 14.5 0.00 0.00 0.00 80 1013.6
20260904011003 18 257 6.4 20.9 0.00 0.00 0.00 80 1013.6
20260904010533 19 257 4.8 20.9 0.00 0.00 0.00 79 1013.6
20260904010002 19 265 4.8 17.7 0.00 0.00 0.00 78 1013.6
20260904005524 20 280 3.2 12.9 0.00 0.00 0.00 77 1013.6
20260904005003 20 286 3.2 11.3 0.00 0.00 0.00 76 1013.6
20260904004524 20 280 3.2 14.5 0.00 0.00 0.00 76 1013.6
20260904004003 20 274 4.8 14.5 0.00 0.00 0.00 74 1013.6
20260904003503 20 276 4.8 14.5 0.00 0.00 0.00 73 1013.6
20260904003003 20 278 3.2 14.5 0.00 0.00 0.00 72 1013.6
20260904002502 21 263 3.2 12.9 0.00 0.00 0.00 71 1013.6
20260904002003 21 262 4.8 16.1 0.00 0.00 0.00 71 1013.6
20260904001502 21 275 4.8 16.1 0.00 0.00 0.00 70 1013.6
20260904001003 21 287 4.8 14.5 0.00 0.00 0.00 71 1013.6
20260904000524 21 279 4.8 14.5 0.00 0.00 0.00 71 1013.6
20260904000003 21 274 4.8 14.5 0.00 0.00 0.00 71 1013.6
20260903235503 21 279 4.8 17.7 0.00 0.00 0.00 70 1013.6
20260903235003 21 272 4.8 17.7 0.00 0.00 0.00 69 1013.6
20260903234503 21 267 4.8 12.9 0.00 0.00 0.00 69 1013.6
20260903234002 22 283 4.8 12.9 0.00 0.00 0.00 68 1013.6
20260903233503 22 298 4.8 14.5 0.00 0.00 0.00 69 1013.6
20260903233003 22 293 4.8 14.5 0.00 0.00 0.00 68 1013.6
20260903232524 22 280 4.8 14.5 0.00 0.00 0.00 69 1013.6
20260903232024 22 273 4.8 14.5 0.00 0.00 0.00 68 1013.6
20260903231503 22 313 4.8 20.9 0.00 0.00 0.00 68 1013.6
20260903231003 22 303 4.8 20.9 0.00 0.00 0.00 68 1013.6
20260903230503 22 272 3.2 14.5 0.00 0.00 0.00 68 1013.6
20260903230003 22 307 3.2 12.9 0.00 0.00 0.00 68 1013.6
20260903225503 22 289 3.2 14.5 0.00 0.00 0.00 68 1013.6
20260903225003 22 261 4.8 14.5 0.00 0.00 0.00 68 1013.6
20260903224502 22 252 6.4 14.5 0.00 0.00 0.00 67 1013.6
20260903224003 22 257 6.4 14.5 0.00 0.00 0.00 67 1013.6
20260903223502 22 261 6.4 19.3 0.00 0.00 0.00 67 1013.6
20260903223003 22 276 6.4 19.3 0.00 0.00 0.00 66 1013.6
20260903222503 22 312 4.8 17.7 0.00 0.00 0.00 66 1013.6
20260903222003 22 308 4.8 12.9 0.00 0.00 0.00 67 1013.6
20260903221503 22 291 4.8 12.9 0.00 0.00 0.00 66 1013.6
20260903221003 22 286 6.4 14.5 0.00 0.00 0.00 67 1013.6
20260903220524 22 278 4.8 14.5 0.00 0.00 0.00 67 1013.6
20260903220024 22 258 4.8 17.7 0.00 0.00 0.00 67 1013.6
20260903215503 22 257 4.8 17.7 0.00 0.00 0.00 67 1013.6
20260903215003 22 267 3.2 16.1 0.00 0.00 0.00 67 1013.6
20260903214503 22 268 3.2 11.3 0.00 0.00 0.00 67 1013.6